When you browse on this site, cookies collect data to enhance your experience and personalize the content and advertising you see.
Visit our Privacy Policy to learn more. By continuing to use the site, you agree to this use of cookies and data.
  • In Österreich
  • Länderverzeichnis
  • Für 7 Tage
  • Wassertemperatur
  • Satellitenkarten
  • Wetterkarte
  • News
  • Widgets
  • user-avatar
    Anmelden

    Stündliche Wetter Popowo

    Heute, 20 Februar, Mittwoch

    Zeit Temperatur Niederschläge Wind Luftdruck Luftfeuchtigkeit
    00:00 +3°C° 0 mm 5 m/S 747 mmHg 82%
    01:00 +3°C° 0 mm 4 m/S 747 mmHg 85%
    02:00 +3°C° 0 mm 4 m/S 747 mmHg 86%
    03:00 +3°C° 0 mm 4 m/S 747 mmHg 87%
    04:00 +3°C° 0 mm 4 m/S 748 mmHg 88%
    05:00 +3°C° 0 mm 4 m/S 748 mmHg 88%
    06:00 +1°C° 0 mm 4 m/S 748 mmHg 89%
    07:00 +1°C° 0 mm 4 m/S 748 mmHg 89%
    08:00 +2°C° 0 mm 5 m/S 749 mmHg 84%
    09:00 +3°C° 0 mm 5 m/S 749 mmHg 79%
    10:00 +5°C° 0 mm 5 m/S 750 mmHg 74%
    11:00 +5°C° 0 mm 5 m/S 750 mmHg 70%
    12:00 +6°C° 0 mm 5 m/S 750 mmHg 66%
    13:00 +7°C° 0 mm 5 m/S 750 mmHg 61%
    14:00 +7°C° 0 mm 5 m/S 750 mmHg 61%
    15:00 +7°C° 0 mm 4 m/S 750 mmHg 62%
    16:00 +7°C° 0 mm 4 m/S 751 mmHg 62%
    17:00 +7°C° 0 mm 3 m/S 751 mmHg 66%
    18:00 +7°C° 0 mm 3 m/S 751 mmHg 70%
    19:00 +6°C° 0 mm 2 m/S 751 mmHg 74%
    20:00 +6°C° 0 mm 2 m/S 752 mmHg 75%
    21:00 +6°C° 0 mm 2 m/S 752 mmHg 77%
    22:00 +5°C° 0 mm 3 m/S 752 mmHg 79%
    23:00 +5°C° 0 mm 3 m/S 752 mmHg 81%

    Morgen, 21 Februar, Donnerstag

    Zeit Temperatur Niederschläge Wind Luftdruck Luftfeuchtigkeit
    00:00 +4°C° 0 mm 3 m/S 752 mmHg 83%
    01:00 +4°C° 0 mm 2 m/S 752 mmHg 85%
    02:00 +3°C° 0 mm 3 m/S 752 mmHg 85%
    03:00 +3°C° 0 mm 3 m/S 752 mmHg 84%
    04:00 +3°C° 0 mm 3 m/S 752 mmHg 84%
    05:00 +3°C° 0 mm 3 m/S 752 mmHg 83%
    06:00 +3°C° 0 mm 4 m/S 752 mmHg 83%
    07:00 +4°C° 0 mm 4 m/S 752 mmHg 83%
    08:00 +4°C° 0.2 mm 4 m/S 752 mmHg 80%
    09:00 +3°C° 0.2 mm 5 m/S 752 mmHg 78%
    10:00 +5°C° 0.2 mm 5 m/S 752 mmHg 76%
    11:00 +5°C° 0.5 mm 5 m/S 752 mmHg 76%
    12:00 +4°C° 0.5 mm 6 m/S 752 mmHg 77%
    13:00 +4°C° 0.5 mm 6 m/S 751 mmHg 78%
    14:00 +5°C° 0.4 mm 6 m/S 751 mmHg 78%
    15:00 +5°C° 0.4 mm 6 m/S 751 mmHg 77%
    16:00 +7°C° 0.4 mm 5 m/S 751 mmHg 76%
    17:00 +7°C° 0.4 mm 5 m/S 751 mmHg 79%
    18:00 +7°C° 0.4 mm 5 m/S 751 mmHg 82%
    19:00 +6°C° 0.4 mm 5 m/S 751 mmHg 84%
    20:00 +7°C° 0.5 mm 6 m/S 751 mmHg 86%
    21:00 +7°C° 0.5 mm 6 m/S 751 mmHg 87%
    22:00 +7°C° 0.5 mm 6 m/S 751 mmHg 89%
    23:00 +7°C° 0.2 mm 6 m/S 751 mmHg 89%

    übermorgen, 22 Februar, Freitag

    Zeit Temperatur Niederschläge Wind Luftdruck Luftfeuchtigkeit
    00:00 +7°C° 0.2 mm 6 m/S 751 mmHg 89%
    01:00 +7°C° 0.2 mm 5 m/S 751 mmHg 89%
    02:00 +6°C° 0.1 mm 5 m/S 751 mmHg 88%
    03:00 +6°C° 0.1 mm 5 m/S 751 mmHg 87%
    04:00 +6°C° 0.1 mm 5 m/S 752 mmHg 87%
    05:00 +4°C° 0.2 mm 6 m/S 752 mmHg 86%
    06:00 +4°C° 0.2 mm 6 m/S 753 mmHg 85%
    07:00 +3°C° 0.2 mm 6 m/S 754 mmHg 85%
    08:00 +2°C° 0 mm 6 m/S 755 mmHg 81%
    09:00 +1°C° 0 mm 5 m/S 756 mmHg 77%
    10:00 0°C° 0 mm 5 m/S 758 mmHg 74%
    11:00 0°C° 0 mm 5 m/S 758 mmHg 68%
    12:00 +1°C° 0 mm 4 m/S 759 mmHg 62%
    13:00 +1°C° 0 mm 4 m/S 760 mmHg 55%
    14:00 +1°C° 0 mm 4 m/S 760 mmHg 53%
    15:00 +1°C° 0 mm 4 m/S 761 mmHg 51%
    16:00 +1°C° 0 mm 4 m/S 761 mmHg 49%
    17:00 +1°C° 0 mm 3 m/S 762 mmHg 53%
    18:00 0°C° 0 mm 3 m/S 763 mmHg 57%
    19:00 -1°C° 0 mm 2 m/S 763 mmHg 61%
    20:00 -2°C° 0 mm 2 m/S 764 mmHg 61%
    21:00 -2°C° 0 mm 2 m/S 764 mmHg 60%
    22:00 -3°C° 0 mm 2 m/S 764 mmHg 60%
    23:00 -3°C° 0 mm 2 m/S 765 mmHg 59%

    23 Februar, Samstag

    Zeit Temperatur Niederschläge Wind Luftdruck Luftfeuchtigkeit
    00:00 -3°C° 0 mm 2 m/S 765 mmHg 58%
    01:00 -3°C° 0 mm 2 m/S 765 mmHg 57%
    02:00 -3°C° 0 mm 2 m/S 765 mmHg 56%
    03:00 -4°C° 0 mm 2 m/S 765 mmHg 56%
    04:00 -4°C° 0 mm 2 m/S 764 mmHg 56%
    05:00 -4°C° 0 mm 2 m/S 765 mmHg 56%
    06:00 -4°C° 0 mm 2 m/S 765 mmHg 56%
    07:00 -4°C° 0 mm 2 m/S 765 mmHg 55%
    08:00 -3°C° 0 mm 2 m/S 765 mmHg 50%
    09:00 -3°C° 0 mm 2 m/S 766 mmHg 44%
    10:00 -2°C° 0 mm 3 m/S 766 mmHg 38%
    11:00 -1°C° 0 mm 2 m/S 766 mmHg 34%
    12:00 +1°C° 0 mm 2 m/S 766 mmHg 31%
    13:00 +2°C° 0 mm 2 m/S 765 mmHg 27%
    14:00 +2°C° 0 mm 2 m/S 765 mmHg 27%
    15:00 +2°C° 0 mm 2 m/S 765 mmHg 28%
    16:00 +2°C° 0 mm 2 m/S 765 mmHg 28%
    17:00 +1°C° 0 mm 2 m/S 765 mmHg 31%
    18:00 -1°C° 0 mm 2 m/S 764 mmHg 35%
    19:00 0°C° 0 mm 1 m/S 764 mmHg 38%
    20:00 -1°C° 0 mm 1 m/S 764 mmHg 38%
    21:00 -3°C° 0 mm 2 m/S 764 mmHg 38%
    22:00 -3°C° 0 mm 2 m/S 764 mmHg 38%
    23:00 -1°C° 0 mm 1 m/S 764 mmHg 38%

    24 Februar, Sonntag

    Zeit Temperatur Niederschläge Wind Luftdruck Luftfeuchtigkeit
    00:00 -1°C° 0 mm 1 m/S 764 mmHg 38%
    01:00 -1°C° 0 mm 1 m/S 764 mmHg 38%
    02:00 -1°C° 0 mm 1 m/S 764 mmHg 38%
    03:00 -1°C° 0 mm 1 m/S 763 mmHg 37%
    04:00 -1°C° 0 mm 1 m/S 763 mmHg 36%
    05:00 -1°C° 0 mm 1 m/S 763 mmHg 36%
    06:00 -1°C° 0 mm 1 m/S 763 mmHg 35%
    07:00 -1°C° 0 mm 1 m/S 763 mmHg 35%
    08:00 0°C° 0 mm 1 m/S 763 mmHg 31%
    09:00 +2°C° 0 mm 1 m/S 763 mmHg 27%
    10:00 +2°C° 0 mm 0 m/S 763 mmHg 23%
    11:00 +3°C° 0 mm 0 m/S 763 mmHg 22%
    12:00 +4°C° 0 mm 0 m/S 763 mmHg 22%
    13:00 +5°C° 0 mm 0 m/S 763 mmHg 21%
    14:00 +5°C° 0 mm 0 m/S 762 mmHg 25%
    15:00 +4°C° 0 mm 0 m/S 762 mmHg 30%
    16:00 +4°C° 0 mm 0 m/S 762 mmHg 34%
    17:00 +3°C° 0 mm 0 m/S 762 mmHg 37%
    18:00 +1°C° 0 mm 0 m/S 762 mmHg 39%
    19:00 0°C° 0 mm 0 m/S 762 mmHg 42%
    20:00 0°C° 0 mm 0 m/S 762 mmHg 42%
    21:00 0°C° 0 mm 0 m/S 762 mmHg 42%
    22:00 0°C° 0 mm 0 m/S 762 mmHg 43%
    23:00 0°C° 0 mm 0 m/S 762 mmHg 43%

    25 Februar, Montag

    Zeit Temperatur Niederschläge Wind Luftdruck Luftfeuchtigkeit
    00:00 +1°C° 0 mm 1 m/S 762 mmHg 44%
    01:00 +1°C° 0 mm 1 m/S 762 mmHg 45%
    02:00 +1°C° 0 mm 1 m/S 762 mmHg 46%
    03:00 +1°C° 0 mm 1 m/S 762 mmHg 47%
    04:00 +1°C° 0 mm 1 m/S 762 mmHg 48%
    05:00 +1°C° 0 mm 1 m/S 762 mmHg 51%
    06:00 -1°C° 0 mm 2 m/S 762 mmHg 53%
    07:00 -2°C° 0 mm 2 m/S 762 mmHg 56%
    08:00 +1°C° 0 mm 2 m/S 762 mmHg 54%
    09:00 +2°C° 0 mm 2 m/S 762 mmHg 52%
    10:00 +4°C° 0 mm 2 m/S 763 mmHg 50%
    11:00 +4°C° 0 mm 3 m/S 762 mmHg 50%
    12:00 +5°C° 0 mm 3 m/S 762 mmHg 50%
    13:00 +7°C° 0 mm 3 m/S 762 mmHg 49%
    14:00 +7°C° 0 mm 3 m/S 762 mmHg 54%
    15:00 +7°C° 0 mm 2 m/S 762 mmHg 58%
    16:00 +7°C° 0 mm 2 m/S 761 mmHg 62%
    17:00 +6°C° 0 mm 2 m/S 762 mmHg 70%
    18:00 +5°C° 0 mm 2 m/S 762 mmHg 78%
    19:00 +4°C° 0 mm 1 m/S 762 mmHg 86%
    20:00 +4°C° 0 mm 1 m/S 762 mmHg 87%
    21:00 +3°C° 0 mm 1 m/S 762 mmHg 88%
    22:00 +3°C° 0 mm 1 m/S 762 mmHg 89%
    23:00 +3°C° 0 mm 1 m/S 762 mmHg 89%
    Mehr zeigen